Location: Fort Collins
(40.5850°N, 105.0840°W)
Time: 20:04:50
(UTC-06:00)

Cosmos 2297 Rocket - Visible Passes

Search period start: 27 May 2016 00:00
Search period end: 06 June 2016 00:00
Orbit: 839 x 844 km, 71.0° (Epoch: 26 May)

Date Brightness Start Highest point End Pass type
(mag) Time Alt. Az. Time Alt. Az. Time Alt. Az.
31 May 2.9 04:51:36 10° S 04:57:06 55° ESE 05:02:37 10° NNE visible
01 Jun 2.9 04:36:34 10° S 04:42:02 52° ESE 04:47:31 10° NNE visible
02 Jun 3.0 04:21:33 10° S 04:26:57 49° ESE 04:32:24 10° NE visible
03 Jun 3.0 04:06:31 10° S 04:11:54 47° ESE 04:17:17 10° NE visible
04 Jun 3.1 03:51:45 11° S 03:56:50 44° ESE 04:02:10 10° NE visible
05 Jun 3.1 03:37:21 14° S 03:41:46 42° ESE 03:47:03 10° NE visible
